FIN249 BIKF-CYHZ

Flight info

Callsign FIN249
Flight time N/A
Altitude 40000
Route RALOV3A RALOV DCT RAKIS DCT 63N030W 61N040W 57N050W DCT JANJO/N0497F400 DCT HITOR DCT CAYLY CABOT5
Aircraft A359/H-SDE2E3GHIJ3J4J5LM1ORWXY/LB1D1

Departure

Time 2026-05-04 21:58
Airport Keflavik International Airport (BIKF)

Arrival

Time N/A
Airport Halifax / Stanfield International Airport (CYHZ)
Time Latitude Longitude Altitude Speed Heading
2026-05-04 21:45 63.98782 -22.61339 158 ft 0 kts 179°
2026-05-04 21:48 63.98796 -22.61340 156 ft 3 kts 179°
2026-05-04 21:48 63.98816 -22.61342 159 ft 3 kts 155°
2026-05-04 21:49 63.98832 -22.61370 163 ft 3 kts 113°
2026-05-04 21:49 63.98836 -22.61400 165 ft 0 kts 88°
2026-05-04 21:50 63.98840 -22.61369 165 ft 6 kts 75°
2026-05-04 21:50 63.98852 -22.61263 173 ft 7 kts 79°
2026-05-04 21:51 63.98857 -22.61105 167 ft 12 kts 89°
2026-05-04 21:51 63.98810 -22.60958 167 ft 13 kts 165°
2026-05-04 21:51 63.98708 -22.60939 165 ft 16 kts 178°
2026-05-04 21:51 63.98581 -22.60942 162 ft 20 kts 181°
2026-05-04 21:52 63.98431 -22.60946 162 ft 22 kts 180°
2026-05-04 21:52 63.98268 -22.60937 159 ft 24 kts 178°
2026-05-04 21:52 63.98092 -22.60949 156 ft 26 kts 181°
2026-05-04 21:52 63.97901 -22.60949 155 ft 28 kts 180°
2026-05-04 21:53 63.97725 -22.60948 153 ft 22 kts 180°
2026-05-04 21:53 63.97566 -22.60948 152 ft 24 kts 180°
2026-05-04 21:53 63.97392 -22.60947 151 ft 26 kts 180°
2026-05-04 21:53 63.97204 -22.60948 150 ft 28 kts 180°
2026-05-04 21:54 63.97007 -22.60949 149 ft 28 kts 180°
2026-05-04 21:54 63.96811 -22.60948 148 ft 23 kts 179°
2026-05-04 21:54 63.96697 -22.60946 147 ft 16 kts 179°
2026-05-04 21:54 63.96571 -22.60944 147 ft 20 kts 179°
2026-05-04 21:55 63.96468 -22.60850 146 ft 13 kts 113°
2026-05-04 21:55 63.96463 -22.60785 146 ft 0 kts 95°
2026-05-04 21:57 63.96461 -22.60716 146 ft 19 kts 92°
2026-05-04 21:57 63.96499 -22.60565 146 ft 8 kts 16°
2026-05-04 21:57 63.96763 -22.60545 149 ft 73 kts
2026-05-04 21:58 63.97494 -22.60539 153 ft 134 kts
2026-05-04 21:58 63.98552 -22.60531 453 ft 164 kts
2026-05-04 21:58 63.99721 -22.60532 1141 ft 167 kts 360°
2026-05-04 21:58 64.00884 -22.60534 1817 ft 179 kts 360°
2026-05-04 21:59 64.02229 -22.60536 2149 ft 208 kts
2026-05-04 21:59 64.03762 -22.60567 2584 ft 231 kts 358°
2026-05-04 21:59 64.05326 -22.61612 3293 ft 242 kts 327°
2026-05-04 21:59 64.06351 -22.64650 4156 ft 248 kts 290°
2026-05-04 22:00 64.06533 -22.68569 5130 ft 250 kts 271°
2026-05-04 22:00 64.06465 -22.72546 6084 ft 251 kts 270°
2026-05-04 22:00 64.06380 -22.78272 7526 ft 249 kts 272°
2026-05-04 22:00 64.06325 -22.86184 9425 ft 252 kts 274°
2026-05-04 22:01 64.06309 -22.90193 10398 ft 253 kts 274°
2026-05-04 22:01 64.06298 -22.94310 10980 ft 269 kts 274°
2026-05-04 22:01 64.06291 -22.98753 11334 ft 290 kts 274°
2026-05-04 22:01 64.06278 -23.03470 11917 ft 301 kts 274°
2026-05-04 22:02 64.06259 -23.08277 12802 ft 304 kts 274°
2026-05-04 22:02 64.06238 -23.13109 13764 ft 304 kts 274°
2026-05-04 22:02 64.06216 -23.17957 14637 ft 306 kts 274°
2026-05-04 22:02 64.06197 -23.22841 15414 ft 310 kts 274°
2026-05-04 22:03 64.06177 -23.27785 16237 ft 313 kts 274°
2026-05-04 22:03 64.06155 -23.32794 17089 ft 316 kts 274°
2026-05-04 22:03 64.06130 -23.37800 17981 ft 316 kts 274°
2026-05-04 22:03 64.06102 -23.43168 18756 ft 320 kts 274°
2026-05-04 22:04 64.06045 -23.53539 19911 ft 332 kts 273°
2026-05-04 22:04 64.05998 -23.60893 20855 ft 336 kts 273°
2026-05-04 22:04 64.05961 -23.66256 21527 ft 339 kts 273°
2026-05-04 22:04 64.05923 -23.71671 22174 ft 343 kts 273°
2026-05-04 22:05 64.05881 -23.77155 22834 ft 347 kts 273°
2026-05-04 22:05 64.05838 -23.82703 23479 ft 350 kts 273°
2026-05-04 22:05 64.05697 -23.88304 24063 ft 357 kts 268°
2026-05-04 22:05 64.05173 -23.93906 24580 ft 366 kts 258°
2026-05-04 22:06 64.04280 -23.99419 25114 ft 372 kts 254°
2026-05-04 22:06 64.03294 -24.04899 25649 ft 375 kts 253°
2026-05-04 22:06 63.99766 -24.24369 27407 ft 387 kts 253°
2026-05-04 22:06 63.97006 -24.39563 28682 ft 396 kts 253°
2026-05-04 22:07 63.91259 -24.70864 30989 ft 413 kts 252°
2026-05-04 22:07 63.87124 -24.95485 32353 ft 421 kts 257°
2026-05-04 22:07 63.83816 -25.21336 33593 ft 432 kts 258°
2026-05-04 22:07 63.80344 -25.47801 34606 ft 442 kts 257°
2026-05-04 22:08 63.77956 -25.65635 35198 ft 447 kts 257°
2026-05-04 22:08 63.74291 -25.92634 36227 ft 449 kts 257°
2026-05-04 22:08 63.70566 -26.19655 37155 ft 452 kts 256°
2026-05-04 22:08 63.66771 -26.46749 37944 ft 456 kts 256°
2026-05-04 22:09 63.62888 -26.74022 38749 ft 458 kts 256°
2026-05-04 22:09 63.58935 -27.01350 39361 ft 460 kts 255°
2026-05-04 22:09 63.54208 -27.28330 39793 ft 466 kts 250°
2026-05-04 22:09 63.51520 -27.42149 40073 ft 466 kts 250°
2026-05-04 22:10 63.48978 -27.55489 40281 ft 467 kts 251°
2026-05-04 22:10 63.43927 -27.82127 40295 ft 467 kts 250°
2026-05-04 22:11 63.38802 -28.08801 40292 ft 468 kts 250°
2026-05-04 22:11 63.33610 -28.35440 40293 ft 468 kts 250°
2026-05-04 22:12 63.28373 -28.61971 40291 ft 469 kts 250°
2026-05-04 22:12 63.24410 -28.81818 40293 ft 469 kts 250°
2026-05-04 22:13 63.21751 -28.95029 40292 ft 469 kts 249°
2026-05-04 22:13 63.19075 -29.08237 40293 ft 469 kts 249°
2026-05-04 22:14 63.16387 -29.21419 40292 ft 469 kts 249°
2026-05-04 22:14 63.13701 -29.34510 40298 ft 470 kts 249°
2026-05-04 22:15 63.10985 -29.47662 40295 ft 470 kts 249°
2026-05-04 22:15 63.08257 -29.60786 40295 ft 470 kts 249°
2026-05-04 22:16 63.05519 -29.73879 40294 ft 470 kts 249°
2026-05-04 22:16 63.02767 -29.86958 40279 ft 470 kts 249°
2026-05-04 22:17 63.00095 -30.00023 40300 ft 469 kts 253°
2026-05-04 22:17 62.97908 -30.13510 40300 ft 468 kts 255°
2026-05-04 22:18 62.95815 -30.27042 40301 ft 468 kts 255°
2026-05-04 22:18 62.93726 -30.40571 40301 ft 468 kts 255°
2026-05-04 22:19 62.91610 -30.54104 40303 ft 468 kts 255°
2026-05-04 22:19 62.89474 -30.67626 40303 ft 468 kts 255°
2026-05-04 22:20 62.87332 -30.81067 40303 ft 469 kts 254°
2026-05-04 22:20 62.85169 -30.94539 40302 ft 468 kts 254°
2026-05-04 22:21 62.82997 -31.07969 40298 ft 468 kts 254°
2026-05-04 22:21 62.80814 -31.21375 40298 ft 468 kts 254°
2026-05-04 22:22 62.78617 -31.34765 40288 ft 468 kts 254°
2026-05-04 22:22 62.76411 -31.48110 40297 ft 467 kts 254°
2026-05-04 22:23 62.74206 -31.61354 40298 ft 467 kts 253°
2026-05-04 22:23 62.71974 -31.74673 40303 ft 467 kts 253°